TimeCST,TemperatureF,Dew PointF,Humidity,Sea Level PressureIn,VisibilityMPH,Wind Direction,Wind SpeedMPH,Gust SpeedMPH,PrecipitationIn,Events,Conditions,WindDirDegrees,DateUTC
12:53 AM,21.9,12.9,68,30.24,10.0,West,11.5,-,N/A,,Scattered Clouds,280,2012-12-29 06:53:00
1:53 AM,23.0,12.9,65,30.22,10.0,WNW,12.7,-,N/A,,Clear,290,2012-12-29 07:53:00
2:53 AM,21.9,12.0,66,30.23,10.0,WNW,10.4,-,N/A,,Clear,290,2012-12-29 08:53:00
3:53 AM,21.0,12.0,68,30.27,10.0,West,10.4,-,N/A,,Clear,280,2012-12-29 09:53:00
4:53 AM,21.9,12.0,66,30.28,10.0,West,10.4,-,N/A,,Clear,270,2012-12-29 10:53:00
5:53 AM,19.9,10.9,68,30.30,10.0,WNW,11.5,-,N/A,,Clear,290,2012-12-29 11:53:00
6:53 AM,19.0,10.0,68,30.34,10.0,West,6.9,-,N/A,,Clear,260,2012-12-29 12:53:00
7:53 AM,18.0,9.0,68,30.35,10.0,SW,3.5,-,N/A,,Clear,230,2012-12-29 13:53:00
8:53 AM,21.9,10.9,63,30.36,10.0,West,10.4,-,N/A,,Clear,260,2012-12-29 14:53:00
9:53 AM,28.0,12.9,53,30.36,10.0,WSW,5.8,-,N/A,,Clear,250,2012-12-29 15:53:00
10:53 AM,39.0,15.1,38,30.37,10.0,WSW,8.1,-,N/A,,Clear,250,2012-12-29 16:53:00
11:53 AM,43.0,10.0,26,30.34,10.0,SW,13.8,-,N/A,,Clear,220,2012-12-29 17:53:00
12:53 PM,44.1,10.9,26,30.31,10.0,SSW,12.7,-,N/A,,Clear,210,2012-12-29 18:53:00
1:53 PM,45.0,14.0,29,30.26,10.0,SSW,15.0,-,N/A,,Clear,200,2012-12-29 19:53:00
2:53 PM,45.0,12.9,27,30.24,10.0,South,16.1,-,N/A,,Clear,190,2012-12-29 20:53:00
3:53 PM,46.0,15.1,29,30.23,10.0,South,17.3,21.9,N/A,,Clear,190,2012-12-29 21:53:00
4:53 PM,44.1,15.1,31,30.24,10.0,SSW,16.1,-,N/A,,Clear,200,2012-12-29 22:53:00
5:53 PM,35.1,16.0,46,30.24,10.0,South,9.2,-,N/A,,Clear,180,2012-12-29 23:53:00
6:53 PM,32.0,17.1,54,30.25,10.0,South,8.1,-,N/A,,Clear,180,2012-12-30 00:53:00
7:53 PM,30.0,17.1,59,30.25,10.0,South,9.2,-,N/A,,Clear,190,2012-12-30 01:53:00
8:53 PM,28.0,17.1,63,30.27,10.0,South,8.1,-,N/A,,Clear,190,2012-12-30 02:53:00
9:53 PM,28.0,17.1,63,30.23,10.0,South,10.4,-,N/A,,Clear,190,2012-12-30 03:53:00
10:53 PM,28.9,17.1,61,30.19,10.0,South,10.4,-,N/A,,Clear,180,2012-12-30 04:53:00
11:53 PM,27.0,17.1,66,30.18,10.0,South,11.5,-,N/A,,Clear,180,2012-12-30 05:53:00